Location: Grossmotten
(48.5500°N, 15.3833°E)
Time: 00:05:56
(UTC+00:00)

Cosmos 1933 - Pass Details

Date: 15 November 2019
Orbit: 546 x 565 km, 82.5° (Epoch: 06 December)

Event Time Altitude Azimuth Distance (km) Brightness Sun altitude
Rises 04:59:35 0° 349° (N) 2,739 6.6 -11.0°
Reaches altitude 10° 05:01:46 10° 349° (N) 1,837 5.7 -10.7°
Maximum altitude 05:05:49 83° 263° (W) 560 3.3 -10.0°
Drops below altitude 10° 05:09:48 10° 175° (S) 1,815 6.3 -9.4°
Sets 05:11:57 0° 174° (S) 2,702 7.2 -9.1°
